Regional Weather Roundup
Issued by NWS

Home | Current Version | Previous Version | Graphics & Text | Print | Product List | Glossary Off
Versions: 1 2 3 4 5 6 7 8 9 10 11 12 13 14 15 16 17 18 19 20 21 22 23 24 25 26 27 28 29 30 31 32 33 34 35 36 37 38 39 40 41 42 43 44 45 46 47 48 49 50

000
ASUS43 KMKX 300611
RWRWI

WISCONSIN REGIONAL WEATHER ROUNDUP
NATIONAL WEATHER SERVICE MILWAUKEE/SULLIVAN WI
100 AM CDT THU OCT 30 2014

NOTE: "FAIR" INDICATES FEW OR NO CLOUDS BELOW 12,000 FEET WITH NO
SIGNIFICANT WEATHER AND/OR OBSTRUCTIONS TO VISIBILITY.

WIZ001-002-006>008-014>016-023>028-300700-
NORTHWEST WISCONSIN

CITY           SKY/WX    TMP DP  RH WIND       PRES   REMARKS
SUPERIOR ARPT  CLOUDY    38  33  82 CALM      30.07F
6HR MIN TEMP:  38; 6HR MAX TEMP:  41;

ASHLAND        CLOUDY    40  33  76 SW5       30.07F
6HR MIN TEMP:  40; 6HR MAX TEMP:  41;

HAYWARD        CLOUDY    38  31  76 VRB6      30.07F WCI  33
6HR MIN TEMP:  38; 6HR MAX TEMP:  40;

SIREN          CLOUDY    37  32  81 S3        30.08S
6HR MIN TEMP:  37; 6HR MAX TEMP:  39;

CUMBERLAND     CLOUDY    32  30  93 CALM      30.08S
RICE LAKE      CLOUDY    32  31  96 CALM      30.09S
6HR MIN TEMP:  32; 6HR MAX TEMP:  41;

CHETEK         CLOUDY    32  31  96 CALM      30.09R
6HR MIN TEMP:  32; 6HR MAX TEMP:  41;

LADYSMITH      MOCLDY    37  32  85 CALM      30.09S
6HR MIN TEMP:  37; 6HR MAX TEMP:  40;

EAU CLAIRE     MOCLDY    34  30  85 CALM      30.09S
6HR MIN TEMP:  32; 6HR MAX TEMP:  42;

MENOMONIE      CLOUDY    35  32  90 CALM      30.10R
NEW RICHMOND   CLOUDY    33  32  95 CALM      30.09S
6HR MIN TEMP:  32; 6HR MAX TEMP:  37;

OSCEOLA        CLOUDY    35  34  96 CALM      30.11F
6HR MIN TEMP:  34; 6HR MAX TEMP:  40;

$$

WIZ003>005-009-010-017-018-300700-
NORTH CENTRAL WISCONSIN

CITY           SKY/WX    TMP DP  RH WIND       PRES   REMARKS
MANITOWISH WTR CLOUDY    36  32  87 SW5       30.05F WCI  32
6HR MIN TEMP:  35; 6HR MAX TEMP:  38;

ARBOR VITAE    CLOUDY    37  33  82 CALM      30.05F
6HR MIN TEMP:  37; 6HR MAX TEMP:  42;

WOODRUFF       CLOUDY    37  33  82 CALM      30.05F
6HR MIN TEMP:  37; 6HR MAX TEMP:  42;

RHINELANDER    CLOUDY    37  31  78 W5        30.06F WCI  33
6HR MIN TEMP:  37; 6HR MAX TEMP:  40;

EAGLE RIVER    CLOUDY    37  30  75 CALM      30.05S
6HR MIN TEMP:  37; 6HR MAX TEMP:  38;

LAND O LAKES   CLOUDY    38  32  81 W3        30.06S
6HR MIN TEMP:  37; 6HR MAX TEMP:  39;

PHILLIPS       CLOUDY    37  32  82 SW3       30.06S
6HR MIN TEMP:  37; 6HR MAX TEMP:  38;

TOMAHAWK       CLOUDY    35  31  85 CALM      30.07S
6HR MIN TEMP:  35; 6HR MAX TEMP:  40;

MEDFORD        PTCLDY    31  30  96 CALM      30.07S
6HR MIN TEMP:  31; 6HR MAX TEMP:  38;

MERRILL        MOCLDY    32  31  99 CALM      30.08S
6HR MIN TEMP:  32; 6HR MAX TEMP:  42;

$$

WIZ029-030-035-036-043>047-300700-
CENTRAL WISCONSIN

CITY           SKY/WX    TMP DP  RH WIND       PRES   REMARKS
WAUSAU         MOCLDY    34  31  88 CALM      30.08S
6HR MIN TEMP:  33; 6HR MAX TEMP:  42;

MOSINEE        PTCLDY    32  32 100 CALM      30.10S
MARSHFIELD     PTCLDY    32  30  92 CALM      30.09S
6HR MIN TEMP:  30; 6HR MAX TEMP:  39;

STEVENS POINT  PTCLDY    28  27  95 CALM      30.10S
6HR MIN TEMP:  27; 6HR MAX TEMP:  36;

WAUPACA        PTCLDY    33  31  96 CALM      30.10F
6HR MIN TEMP:  32; 6HR MAX TEMP:  42;

WAUTOMA        PTCLDY    28  27  96 CALM      30.12S
6HR MIN TEMP:  28; 6HR MAX TEMP:  37;

WISC RAPIDS    PTCLDY    30  28  92 CALM      30.11S
6HR MIN TEMP:  29; 6HR MAX TEMP:  38;

CAMP DOUGLAS   PTCLDY    27  27 100 CALM      30.11S
6HR MIN TEMP:  26; 6HR MAX TEMP:  34;

$$

WIZ011>013-019>022-031-037>040-048>050-300700-
NORTHEAST WISCONSIN

CITY           SKY/WX    TMP DP  RH WIND       PRES   REMARKS
ANTIGO         PTCLDY    31  31  99 CALM      30.07S
6HR MIN TEMP:  31; 6HR MAX TEMP:  39;

SHAWANO        PTCLDY    37  34  86 CALM      30.10S
6HR MIN TEMP:  37; 6HR MAX TEMP:  46;

OCONTO         CLOUDY    40  35  84 CALM      30.09F
6HR MIN TEMP:  40; 6HR MAX TEMP:  47;

STURGEON BAY   CLOUDY    43  36  75 N6        30.10S
6HR MIN TEMP:  43; 6HR MAX TEMP:  46;

GREEN BAY      PTCLDY    42  34  73 CALM      30.10F
6HR MIN TEMP:  41; 6HR MAX TEMP:  46;

MANITOWOC      CLOUDY    43  36  76 W3        30.11S
6HR MIN TEMP:  43; 6HR MAX TEMP:  47;

APPLETON       PTCLDY    36  32  87 W6        30.10F WCI  31
CLINTONVILLE   PTCLDY    34  32  93 CALM      30.10S
OSHKOSH        CLEAR     32  29  88 CALM      30.10F
6HR MIN TEMP:  32; 6HR MAX TEMP:  44;

$$

WIZ032>034-041-042-053>061-300700-
SOUTHWEST WISCONSIN

CITY           SKY/WX    TMP DP  RH WIND       PRES   REMARKS
LA CROSSE      MOCLDY    37  33  85 SE5       30.11F WCI  33
6HR MIN TEMP:  36; 6HR MAX TEMP:  43;

SPARTA         PTCLDY    28  28  97 CALM      30.12S
6HR MIN TEMP:  27; 6HR MAX TEMP:  36;

VIROQUA        MOCLDY    36  32  85 CALM      30.10S
6HR MIN TEMP:  34; 6HR MAX TEMP:  39;

BOSCOBEL       MOCLDY    31  29  92 CALM      30.14S
6HR MIN TEMP:  31; 6HR MAX TEMP:  39;

PRAIRIE DU CHI PTCLDY    34  31  90 CALM      30.12F
6HR MIN TEMP:  32; 6HR MAX TEMP:  41;

PLATTEVILLE    CLEAR     34  31  89 S5        30.13S WCI  30
6HR MIN TEMP:  34; 6HR MAX TEMP:  41;

$$

WIZ056-057-062-063-064-067-068-300700-
SOUTH CENTRAL WISCONSIN

CITY           SKY/WX    TMP DP  RH WIND       PRES   REMARKS
REEDSBURG      PTCLDY    31  30  96 CALM      30.11F
6HR MIN TEMP:  30; 6HR MAX TEMP:  41;

BARABOO/DELLS  PTCLDY    32  31  94 S3        30.11S
6HR MIN TEMP:  32; 6HR MAX TEMP:  37;

LONE ROCK      PTCLDY    34  27  75 CALM      30.13S
6HR MIN TEMP:  33; 6HR MAX TEMP:  43;

MINERAL POINT  MOCLDY    36  32  87 CALM      30.12S
MADISON        MOCLDY    33  30  88 CALM      30.12F
6HR MIN TEMP:  31; 6HR MAX TEMP:  41;

MIDDLETON      MOCLDY    32  32  98 CALM      30.12F
6HR MIN TEMP:  31; 6HR MAX TEMP:  39;

WATERTOWN      PTCLDY    29  28  92 CALM      30.11F
6HR MIN TEMP:  29; 6HR MAX TEMP:  38;

MONROE         MOCLDY    41  32  70 W8        30.12R
JANESVILLE     PTCLDY    32  30  93 CALM      30.12S
$$

WIZ051-052-058>065-066-070>072-300700-
SOUTHEAST WISCONSIN

CITY           SKY/WX    TMP DP  RH WIND       PRES   REMARKS
MILWAUKEE      CLEAR     38  31  76 CALM      30.13R
6HR MIN TEMP:  36; 6HR MAX TEMP:  47;

WAUKESHA       CLEAR     30  28  93 CALM      30.13S
MILWAUKEE/TIMM CLEAR     34  30  86 CALM      30.13S
RACINE         CLEAR     38  31  76 W5        30.14S WCI  34
6HR MIN TEMP:  35; 6HR MAX TEMP:  46;

BURLINGTON     CLEAR     28  28  98 CALM      30.13S
6HR MIN TEMP:  28; 6HR MAX TEMP:  35;

KENOSHA        CLEAR     34  31  88 W3        30.13S
6HR MIN TEMP:  32; 6HR MAX TEMP:  43;

FOND DU LAC    CLEAR     31  28  89 CALM      30.11F
6HR MIN TEMP:  31; 6HR MAX TEMP:  43;

SHEBOYGAN      CLEAR     36  31  82 CALM      30.12S
6HR MIN TEMP:  33; 6HR MAX TEMP:  45;

WEST BEND      CLEAR     32  30  93 CALM      30.11S
JUNEAU         PTCLDY    32  29  92 S3        30.12F
6HR MIN TEMP:  32; 6HR MAX TEMP:  40;

$$

LSZ147-162-300700-
LAKE SUPERIOR

STATION/POSITION TIME  TEMP    WIND        PRES    WAVE
                       AIR SEA DIR/SP/G            HT/PER
                 (UTC) (F)     (DEG/KT/KT) (MB)    (FT/S)
W MID LAKE BUOY  0550   44 45  270/  8/ 10 1017.7F   1/ 4
DEVILS ISLAND    0600   42     260/ 13/ 15 1018.4R
PORT WING        0540   41     230/  6/  9 1018.6S
SAXON HARBOR     0500   42      CALM  /  5 1018.3F
$$

LMZ867-665-643>646-300700-
LAKE MICHIGAN

STATION/POSITION TIME  TEMP    WIND        PRES    WAVE



USA.gov is the U.S. government's official web portal to all federal, state and local government web resources and services.